Year,Month,Day,Hour,Minute,Value (Times are PST for temperature in C)
2009,07,20,00,00,13.30
2009,07,20,00,01,13.30
2009,07,20,00,02,13.30
2009,07,20,00,03,13.30
2009,07,20,00,04,13.30
2009,07,20,00,05,13.30
2009,07,20,00,06,13.20
2009,07,20,00,07,13.20
2009,07,20,00,08,13.20
2009,07,20,00,09,13.20
2009,07,20,00,10,13.20
2009,07,20,00,11,13.20
2009,07,20,00,12,13.20
2009,07,20,00,13,13.20
2009,07,20,00,14,13.20
2009,07,20,00,15,13.20
2009,07,20,00,16,13.20
2009,07,20,00,17,13.20
2009,07,20,00,18,13.20
2009,07,20,00,19,13.20
2009,07,20,00,20,13.20
2009,07,20,00,21,13.20
2009,07,20,00,22,13.20
2009,07,20,00,23,13.10
2009,07,20,00,24,13.10
2009,07,20,00,25,13.10
2009,07,20,00,26,13.10
2009,07,20,00,27,13.10
2009,07,20,00,28,13.10
2009,07,20,00,29,13.10
2009,07,20,00,30,13.10
2009,07,20,00,31,13.10
2009,07,20,00,32,13.10
2009,07,20,00,33,13.10
2009,07,20,00,34,13.10
2009,07,20,00,35,13.10
2009,07,20,00,36,13.10
2009,07,20,00,37,13.10
2009,07,20,00,38,13.10
2009,07,20,00,39,13.10
2009,07,20,00,40,13.20
2009,07,20,00,41,13.20
2009,07,20,00,42,13.20
2009,07,20,00,43,13.20
2009,07,20,00,44,13.20
2009,07,20,00,45,13.20
2009,07,20,00,46,13.20
2009,07,20,00,47,13.20
2009,07,20,00,48,13.20
2009,07,20,00,49,13.20
2009,07,20,00,50,13.20
2009,07,20,00,51,13.20
2009,07,20,00,52,13.20
2009,07,20,00,53,13.20
2009,07,20,00,54,13.20
2009,07,20,00,55,13.20
2009,07,20,00,56,13.20
2009,07,20,00,57,13.20
2009,07,20,00,58,13.20
2009,07,20,00,59,13.10
2009,07,20,01,00,13.10
2009,07,20,01,01,13.10
2009,07,20,01,02,13.10
2009,07,20,01,03,13.10
2009,07,20,01,04,13.10
2009,07,20,01,05,13.10
2009,07,20,01,06,13.10
2009,07,20,01,07,13.00
2009,07,20,01,08,13.00
2009,07,20,01,09,13.00
2009,07,20,01,10,13.00
2009,07,20,01,11,13.00
2009,07,20,01,12,13.00
2009,07,20,01,13,12.90
2009,07,20,01,14,12.90
2009,07,20,01,15,12.90
2009,07,20,01,16,12.90
2009,07,20,01,17,12.90
2009,07,20,01,18,12.90
2009,07,20,01,19,13.00
2009,07,20,01,20,13.00
2009,07,20,01,21,13.00
2009,07,20,01,22,13.00
2009,07,20,01,23,13.00
2009,07,20,01,24,13.00
2009,07,20,01,25,13.00
2009,07,20,01,26,13.00
2009,07,20,01,27,13.00
2009,07,20,01,28,13.00
2009,07,20,01,29,13.00
2009,07,20,01,30,13.00
2009,07,20,01,31,13.00
2009,07,20,01,32,13.00
2009,07,20,01,33,13.00
2009,07,20,01,34,13.00
2009,07,20,01,35,13.00
2009,07,20,01,36,12.90
2009,07,20,01,37,12.90
2009,07,20,01,38,12.90
2009,07,20,01,39,12.90
2009,07,20,01,40,12.90
2009,07,20,01,41,12.90
2009,07,20,01,42,12.90
2009,07,20,01,43,12.90
2009,07,20,01,44,12.90
2009,07,20,01,45,12.90
2009,07,20,01,46,12.90
2009,07,20,01,47,12.90
2009,07,20,01,48,12.90
2009,07,20,01,49,12.90
2009,07,20,01,50,12.90
2009,07,20,01,51,12.90
2009,07,20,01,52,12.90
2009,07,20,01,53,12.90
2009,07,20,01,54,12.90
2009,07,20,01,55,12.90
2009,07,20,01,56,12.90
2009,07,20,01,57,12.90
2009,07,20,01,58,12.90
2009,07,20,01,59,12.90
2009,07,20,02,00,12.90
2009,07,20,02,01,13.00
2009,07,20,02,02,12.90
2009,07,20,02,03,12.90
2009,07,20,02,04,12.90
2009,07,20,02,05,12.90
2009,07,20,02,06,12.90
2009,07,20,02,07,12.90
2009,07,20,02,08,13.00
2009,07,20,02,09,13.00
2009,07,20,02,10,13.00
2009,07,20,02,11,13.00
2009,07,20,02,12,13.00
2009,07,20,02,13,13.10
2009,07,20,02,14,13.10
2009,07,20,02,15,13.10
2009,07,20,02,16,13.10
2009,07,20,02,17,13.20
2009,07,20,02,18,13.20
2009,07,20,02,19,13.30
2009,07,20,02,20,13.30
2009,07,20,02,21,13.40
2009,07,20,02,22,13.50
2009,07,20,02,23,13.60
2009,07,20,02,24,13.70
2009,07,20,02,25,13.80
2009,07,20,02,26,14.00
2009,07,20,02,27,14.10
2009,07,20,02,28,14.20
2009,07,20,02,29,14.30
2009,07,20,02,30,14.40
2009,07,20,02,31,14.50
2009,07,20,02,32,14.60
2009,07,20,02,33,14.70
2009,07,20,02,34,14.70
2009,07,20,02,35,14.70
2009,07,20,02,36,14.80
2009,07,20,02,37,14.80
2009,07,20,02,38,14.90
2009,07,20,02,39,15.00
2009,07,20,02,40,15.00
2009,07,20,02,41,15.00
2009,07,20,02,42,15.10
2009,07,20,02,43,15.30
2009,07,20,02,44,15.40
2009,07,20,02,45,15.50
2009,07,20,02,46,15.50
2009,07,20,02,47,15.60
2009,07,20,02,48,15.60
2009,07,20,02,49,15.60
2009,07,20,02,50,15.60
2009,07,20,02,51,15.60
2009,07,20,02,52,15.60
2009,07,20,02,53,15.60
2009,07,20,02,54,15.50
2009,07,20,02,55,15.50
2009,07,20,02,56,15.40
2009,07,20,02,57,15.30
2009,07,20,02,58,15.20
2009,07,20,02,59,15.00
2009,07,20,03,00,15.00
2009,07,20,03,01,15.00
2009,07,20,03,02,15.00
2009,07,20,03,03,14.90
2009,07,20,03,04,14.80
2009,07,20,03,05,14.70
2009,07,20,03,06,14.70
2009,07,20,03,07,14.70
2009,07,20,03,08,14.60
2009,07,20,03,09,14.70
2009,07,20,03,10,14.70
2009,07,20,03,11,14.70
2009,07,20,03,12,14.80
2009,07,20,03,13,14.90
2009,07,20,03,14,15.00
2009,07,20,03,15,15.00
2009,07,20,03,16,15.00
2009,07,20,03,17,15.00
2009,07,20,03,18,15.00
2009,07,20,03,19,15.00
2009,07,20,03,20,15.10
2009,07,20,03,21,15.20
2009,07,20,03,22,15.20
2009,07,20,03,23,15.30
2009,07,20,03,24,15.30
2009,07,20,03,25,15.40
2009,07,20,03,26,15.40
2009,07,20,03,27,15.40
2009,07,20,03,28,15.50
2009,07,20,03,29,15.50
2009,07,20,03,30,15.50
2009,07,20,03,31,15.60
2009,07,20,03,32,15.60
2009,07,20,03,33,15.60
2009,07,20,03,34,15.70
2009,07,20,03,35,15.70
2009,07,20,03,36,15.70
2009,07,20,03,37,15.80
2009,07,20,03,38,15.80
2009,07,20,03,39,15.80
2009,07,20,03,40,15.90
2009,07,20,03,41,15.90
2009,07,20,03,42,15.90
2009,07,20,03,43,16.00
2009,07,20,03,44,16.00
2009,07,20,03,45,16.00
2009,07,20,03,46,16.00
2009,07,20,03,47,16.00
2009,07,20,03,48,16.00
2009,07,20,03,49,16.00
2009,07,20,03,50,16.00
2009,07,20,03,51,15.90
2009,07,20,03,52,15.90
2009,07,20,03,53,15.90
2009,07,20,03,54,15.90
2009,07,20,03,55,15.90
2009,07,20,03,56,15.90
2009,07,20,03,57,15.90
2009,07,20,03,58,15.90
2009,07,20,03,59,15.90
2009,07,20,04,00,15.90
2009,07,20,04,01,16.00
2009,07,20,04,02,16.00
2009,07,20,04,03,16.00
2009,07,20,04,04,16.10
2009,07,20,04,05,16.10
2009,07,20,04,06,16.10
2009,07,20,04,07,16.10
2009,07,20,04,08,16.10
2009,07,20,04,09,16.10
2009,07,20,04,10,16.20
2009,07,20,04,11,16.20
2009,07,20,04,12,16.20
2009,07,20,04,13,16.20
2009,07,20,04,14,16.20
2009,07,20,04,15,16.20
2009,07,20,04,16,16.20
2009,07,20,04,17,16.20
2009,07,20,04,18,16.20
2009,07,20,04,19,16.20
2009,07,20,04,20,16.20
2009,07,20,04,21,16.20
2009,07,20,04,22,16.20
2009,07,20,04,23,16.20
2009,07,20,04,24,16.20
2009,07,20,04,25,16.20
2009,07,20,04,26,16.20
2009,07,20,04,27,16.20
2009,07,20,04,28,16.30
2009,07,20,04,29,16.30
2009,07,20,04,30,16.30
2009,07,20,04,31,16.30
2009,07,20,04,32,16.30
2009,07,20,04,33,16.30
2009,07,20,04,34,16.30
2009,07,20,04,35,16.30
2009,07,20,04,36,16.30
2009,07,20,04,37,16.30
2009,07,20,04,38,16.30
2009,07,20,04,39,16.20
2009,07,20,04,40,16.20
2009,07,20,04,41,16.20
2009,07,20,04,42,16.20
2009,07,20,04,43,16.20
2009,07,20,04,44,16.20
2009,07,20,04,45,16.10
2009,07,20,04,46,16.10
2009,07,20,04,47,16.10
2009,07,20,04,48,16.10
2009,07,20,04,49,16.00
2009,07,20,04,50,16.00
2009,07,20,04,51,15.90
2009,07,20,04,52,15.90
2009,07,20,04,53,16.00
2009,07,20,04,54,16.00
2009,07,20,04,55,16.10
2009,07,20,04,56,16.10
2009,07,20,04,57,16.20
2009,07,20,04,58,16.20
2009,07,20,04,59,16.20
2009,07,20,05,00,16.20
2009,07,20,05,01,16.20
2009,07,20,05,02,16.20
2009,07,20,05,03,16.30
2009,07,20,05,04,16.40
2009,07,20,05,05,16.50
2009,07,20,05,06,16.50
2009,07,20,05,07,16.60
2009,07,20,05,08,16.70
2009,07,20,05,09,16.70
2009,07,20,05,10,16.80
2009,07,20,05,11,16.80
2009,07,20,05,12,16.80
2009,07,20,05,13,16.80
2009,07,20,05,14,16.90
2009,07,20,05,15,16.90
2009,07,20,05,16,17.00
2009,07,20,05,17,17.10
2009,07,20,05,18,17.10
2009,07,20,05,19,17.20
2009,07,20,05,20,17.20
2009,07,20,05,21,17.20
2009,07,20,05,22,17.20
2009,07,20,05,23,17.20
2009,07,20,05,24,17.20
2009,07,20,05,25,17.10
2009,07,20,05,26,17.10
2009,07,20,05,27,17.10
2009,07,20,05,28,17.10
2009,07,20,05,29,17.10
2009,07,20,05,30,17.10
2009,07,20,05,31,17.10
2009,07,20,05,32,17.10
2009,07,20,05,33,17.10
2009,07,20,05,34,17.10
2009,07,20,05,35,17.10
2009,07,20,05,36,17.10
2009,07,20,05,37,17.10
2009,07,20,05,38,17.00
2009,07,20,05,39,17.00
2009,07,20,05,40,16.90
2009,07,20,05,41,16.90
2009,07,20,05,42,16.90
2009,07,20,05,43,16.90
2009,07,20,05,44,16.90
2009,07,20,05,45,16.80
2009,07,20,05,46,16.80
2009,07,20,05,47,16.80
2009,07,20,05,48,16.80
2009,07,20,05,49,16.70
2009,07,20,05,50,16.70
2009,07,20,05,51,16.60
2009,07,20,05,52,16.60
2009,07,20,05,53,16.60
2009,07,20,05,54,16.60
2009,07,20,05,55,16.60
2009,07,20,05,56,16.60
2009,07,20,05,57,16.60
2009,07,20,05,58,16.60
2009,07,20,05,59,16.60
2009,07,20,06,00,16.60
2009,07,20,06,01,16.60
2009,07,20,06,02,16.50
2009,07,20,06,03,16.50
2009,07,20,06,04,16.50
2009,07,20,06,05,16.50
2009,07,20,06,06,16.50
2009,07,20,06,07,16.50
2009,07,20,06,08,16.50
2009,07,20,06,09,16.50
2009,07,20,06,10,16.50
2009,07,20,06,11,16.50
2009,07,20,06,12,16.50
2009,07,20,06,13,16.50
2009,07,20,06,14,16.50
2009,07,20,06,15,16.60
2009,07,20,06,16,16.60
2009,07,20,06,17,16.60
2009,07,20,06,18,16.60
2009,07,20,06,19,16.70
2009,07,20,06,20,16.70
2009,07,20,06,21,16.70
2009,07,20,06,22,16.70
2009,07,20,06,23,16.70
2009,07,20,06,24,16.70
2009,07,20,06,25,16.70
2009,07,20,06,26,16.70
2009,07,20,06,27,16.80
2009,07,20,06,28,16.80
2009,07,20,06,29,16.80
2009,07,20,06,30,16.80
2009,07,20,06,31,16.80
2009,07,20,06,32,16.80
2009,07,20,06,33,16.80
2009,07,20,06,34,16.80
2009,07,20,06,35,16.80
2009,07,20,06,36,16.90
2009,07,20,06,37,16.90
2009,07,20,06,38,16.90
2009,07,20,06,39,16.90
2009,07,20,06,40,16.90
2009,07,20,06,41,16.90
2009,07,20,06,42,16.90
2009,07,20,06,43,16.90
2009,07,20,06,44,17.00
2009,07,20,06,45,17.00
2009,07,20,06,46,17.00
2009,07,20,06,47,17.10
2009,07,20,06,48,17.10
2009,07,20,06,49,17.10
2009,07,20,06,50,17.20
2009,07,20,06,51,17.20
2009,07,20,06,52,17.30
2009,07,20,06,53,17.30
2009,07,20,06,54,17.40
2009,07,20,06,55,17.40
2009,07,20,06,56,17.50
2009,07,20,06,57,17.60
2009,07,20,06,58,17.60
2009,07,20,06,59,17.70
2009,07,20,07,00,17.80
2009,07,20,07,01,17.80
2009,07,20,07,02,17.90
2009,07,20,07,03,17.90
2009,07,20,07,04,18.00
2009,07,20,07,05,18.10
2009,07,20,07,06,18.20
2009,07,20,07,07,18.30
2009,07,20,07,08,18.30
2009,07,20,07,09,18.40
2009,07,20,07,10,18.40
2009,07,20,07,11,18.40
2009,07,20,07,12,18.50
2009,07,20,07,13,18.60
2009,07,20,07,14,18.60
2009,07,20,07,15,18.60
2009,07,20,07,16,18.70
2009,07,20,07,17,18.70
2009,07,20,07,18,18.70
2009,07,20,07,19,18.80
2009,07,20,07,20,18.80
2009,07,20,07,21,18.80
2009,07,20,07,22,18.80
2009,07,20,07,23,18.80
2009,07,20,07,24,18.80
2009,07,20,07,25,18.90
2009,07,20,07,26,18.90
2009,07,20,07,27,18.90
2009,07,20,07,28,18.90
2009,07,20,07,29,18.90
2009,07,20,07,30,19.00
2009,07,20,07,31,19.00
2009,07,20,07,32,19.10
2009,07,20,07,33,19.10
2009,07,20,07,34,19.10
2009,07,20,07,35,19.20
2009,07,20,07,36,19.20
2009,07,20,07,37,19.30
2009,07,20,07,38,19.30
2009,07,20,07,39,19.40
2009,07,20,07,40,19.40
2009,07,20,07,41,19.50
2009,07,20,07,42,19.50
2009,07,20,07,43,19.50
2009,07,20,07,44,19.60
2009,07,20,07,45,19.60
2009,07,20,07,46,19.60
2009,07,20,07,47,19.70
2009,07,20,07,48,19.70
2009,07,20,07,49,19.70
2009,07,20,07,50,19.70
2009,07,20,07,51,19.80
2009,07,20,07,52,19.80
2009,07,20,07,53,19.80
2009,07,20,07,54,19.90
2009,07,20,07,55,19.90
2009,07,20,07,56,19.90
2009,07,20,07,57,19.90
2009,07,20,07,58,19.90
2009,07,20,07,59,20.00
2009,07,20,08,00,20.00
2009,07,20,08,01,20.00
2009,07,20,08,02,20.00
2009,07,20,08,03,20.00
2009,07,20,08,04,20.00
2009,07,20,08,05,20.00
2009,07,20,08,06,20.00
2009,07,20,08,07,20.10
2009,07,20,08,08,20.10
2009,07,20,08,09,20.10
2009,07,20,08,10,20.20
2009,07,20,08,11,20.30
2009,07,20,08,12,20.30
2009,07,20,08,13,20.40
2009,07,20,08,14,20.50
2009,07,20,08,15,20.50
2009,07,20,08,16,20.60
2009,07,20,08,17,20.60
2009,07,20,08,18,20.60
2009,07,20,08,19,20.60
2009,07,20,08,20,20.60
2009,07,20,08,21,20.50
2009,07,20,08,22,20.40
2009,07,20,08,23,20.40
2009,07,20,08,24,20.40
2009,07,20,08,25,20.40
2009,07,20,08,26,20.40
2009,07,20,08,27,20.40
2009,07,20,08,28,20.40
2009,07,20,08,29,20.40
2009,07,20,08,30,20.40
2009,07,20,08,31,20.50
2009,07,20,08,32,20.60
2009,07,20,08,33,20.60
2009,07,20,08,34,20.60
2009,07,20,08,35,20.60
2009,07,20,08,36,20.70
2009,07,20,08,37,20.70
2009,07,20,08,38,20.80
2009,07,20,08,39,20.80
2009,07,20,08,40,20.80
2009,07,20,08,41,20.80
2009,07,20,08,42,20.80
2009,07,20,08,43,20.80
2009,07,20,08,44,20.90
2009,07,20,08,45,21.00
2009,07,20,08,46,21.00
2009,07,20,08,47,21.10
2009,07,20,08,48,21.10
2009,07,20,08,49,21.10
2009,07,20,08,50,21.10
2009,07,20,08,51,21.10
2009,07,20,08,52,21.10
2009,07,20,08,53,21.10
2009,07,20,08,54,21.20
2009,07,20,08,55,21.20
2009,07,20,08,56,21.20
2009,07,20,08,57,21.20
2009,07,20,08,58,21.20
2009,07,20,08,59,21.30
2009,07,20,09,00,21.30
2009,07,20,09,01,21.40
2009,07,20,09,02,21.50
2009,07,20,09,03,21.50
2009,07,20,09,04,21.60
2009,07,20,09,05,21.60
2009,07,20,09,06,21.70
2009,07,20,09,07,21.70
2009,07,20,09,08,21.70
2009,07,20,09,09,21.60
2009,07,20,09,10,21.60
2009,07,20,09,11,21.60
2009,07,20,09,12,21.60
2009,07,20,09,13,21.60
2009,07,20,09,14,21.50
2009,07,20,09,15,21.40
2009,07,20,09,16,21.50
2009,07,20,09,17,21.60
2009,07,20,09,18,21.60
2009,07,20,09,19,21.60
2009,07,20,09,20,21.70
2009,07,20,09,21,21.70
2009,07,20,09,22,21.70
2009,07,20,09,23,21.70
2009,07,20,09,24,21.80
2009,07,20,09,25,21.80
2009,07,20,09,26,21.80
2009,07,20,09,27,21.80
2009,07,20,09,28,21.80
2009,07,20,09,29,21.70
2009,07,20,09,30,21.70
2009,07,20,09,31,21.80
2009,07,20,09,32,21.80
2009,07,20,09,33,21.80
2009,07,20,09,34,21.80
2009,07,20,09,35,21.90
2009,07,20,09,36,22.00
2009,07,20,09,37,22.10
2009,07,20,09,38,22.20
2009,07,20,09,39,22.20
2009,07,20,09,40,22.20
2009,07,20,09,41,22.30
2009,07,20,09,42,22.30
2009,07,20,09,43,22.50
2009,07,20,09,44,22.60
2009,07,20,09,45,22.70
2009,07,20,09,46,22.80
2009,07,20,09,47,22.90
2009,07,20,09,48,23.00
2009,07,20,09,49,23.10
2009,07,20,09,50,23.30
2009,07,20,09,51,23.40
2009,07,20,09,52,23.40
2009,07,20,09,53,23.50
2009,07,20,09,54,23.60
2009,07,20,09,55,23.60
2009,07,20,09,56,23.70
2009,07,20,09,57,23.70
2009,07,20,09,58,23.70
2009,07,20,09,59,23.70
2009,07,20,10,00,23.70
2009,07,20,10,01,23.80
2009,07,20,10,02,23.80
2009,07,20,10,03,23.80
2009,07,20,10,04,23.80
2009,07,20,10,05,23.70
2009,07,20,10,06,23.60
2009,07,20,10,07,23.50
2009,07,20,10,08,23.50
2009,07,20,10,09,23.40
2009,07,20,10,10,23.40
2009,07,20,10,11,23.40
2009,07,20,10,12,23.40
2009,07,20,10,13,23.50
2009,07,20,10,14,23.60
2009,07,20,10,15,23.70
2009,07,20,10,16,23.80
2009,07,20,10,17,23.80
2009,07,20,10,18,23.80
2009,07,20,10,19,23.80
2009,07,20,10,20,23.80
2009,07,20,10,21,23.70
2009,07,20,10,22,23.70
2009,07,20,10,23,23.80
2009,07,20,10,24,23.90
2009,07,20,10,25,24.10
2009,07,20,10,26,24.10
2009,07,20,10,27,24.10
2009,07,20,10,28,24.20
2009,07,20,10,29,24.10
2009,07,20,10,30,24.10
2009,07,20,10,31,24.10
2009,07,20,10,32,24.00
2009,07,20,10,33,24.00
2009,07,20,10,34,24.10
2009,07,20,10,35,24.10
2009,07,20,10,36,24.10
2009,07,20,10,37,24.00
2009,07,20,10,38,23.90
2009,07,20,10,39,23.90
2009,07,20,10,40,23.90
2009,07,20,10,41,23.90
2009,07,20,10,42,23.90
2009,07,20,10,43,23.90
2009,07,20,10,44,23.80
2009,07,20,10,45,23.80
2009,07,20,10,46,23.80
2009,07,20,10,47,23.80
2009,07,20,10,48,23.80
2009,07,20,10,49,23.90
2009,07,20,10,50,23.80
2009,07,20,10,51,23.80
2009,07,20,10,52,23.70
2009,07,20,10,53,23.70
2009,07,20,10,54,23.60
2009,07,20,10,55,23.60
2009,07,20,10,56,23.70
2009,07,20,10,57,23.80
2009,07,20,10,58,23.80
2009,07,20,10,59,23.80
2009,07,20,11,00,23.80
2009,07,20,11,01,23.80
2009,07,20,11,02,23.90
2009,07,20,11,03,23.90
2009,07,20,11,04,24.00
2009,07,20,11,05,24.10
2009,07,20,11,06,24.20
2009,07,20,11,07,24.20
2009,07,20,11,08,24.10
2009,07,20,11,09,24.00
2009,07,20,11,10,23.90
2009,07,20,11,11,24.00
2009,07,20,11,12,24.00
2009,07,20,11,13,24.00
2009,07,20,11,14,24.00
2009,07,20,11,15,24.00
2009,07,20,11,16,24.10
2009,07,20,11,17,24.10
2009,07,20,11,18,24.20
2009,07,20,11,19,24.20
2009,07,20,11,20,24.30
2009,07,20,11,21,24.30
2009,07,20,11,22,24.20
2009,07,20,11,23,24.20
2009,07,20,11,24,24.20
2009,07,20,11,25,24.20
2009,07,20,11,26,24.20
2009,07,20,11,27,24.10
2009,07,20,11,28,24.10
2009,07,20,11,29,24.10
2009,07,20,11,30,24.20
2009,07,20,11,31,24.20
2009,07,20,11,32,24.20
2009,07,20,11,33,24.20
2009,07,20,11,34,24.20
2009,07,20,11,35,24.30
2009,07,20,11,36,24.30
2009,07,20,11,37,24.30
2009,07,20,11,38,24.30
2009,07,20,11,39,24.20
2009,07,20,11,40,24.20
2009,07,20,11,41,24.20
2009,07,20,11,42,24.30
2009,07,20,11,43,24.20
2009,07,20,11,44,24.30
2009,07,20,11,45,24.30
2009,07,20,11,46,24.30
2009,07,20,11,47,24.40
2009,07,20,11,48,24.40
2009,07,20,11,49,24.40
2009,07,20,11,50,24.40
2009,07,20,11,51,24.40
2009,07,20,11,52,24.40
2009,07,20,11,53,24.40
2009,07,20,11,54,24.50
2009,07,20,11,55,24.50
2009,07,20,11,56,24.60
2009,07,20,11,57,24.60
2009,07,20,11,58,24.60
2009,07,20,11,59,24.70
2009,07,20,12,00,24.70
2009,07,20,12,01,24.70
2009,07,20,12,02,24.70
2009,07,20,12,03,24.80
2009,07,20,12,04,24.90
2009,07,20,12,05,25.00
2009,07,20,12,06,25.10
2009,07,20,12,07,25.20
2009,07,20,12,08,25.20
2009,07,20,12,09,25.30
2009,07,20,12,10,25.30
2009,07,20,12,11,25.30
2009,07,20,12,12,25.40
2009,07,20,12,13,25.50
2009,07,20,12,14,25.60
2009,07,20,12,15,25.70
2009,07,20,12,16,25.70
2009,07,20,12,17,25.80
2009,07,20,12,18,25.70
2009,07,20,12,19,25.70
2009,07,20,12,20,25.70
2009,07,20,12,21,25.60
2009,07,20,12,22,25.60
2009,07,20,12,23,25.60
2009,07,20,12,24,25.60
2009,07,20,12,25,25.60
2009,07,20,12,26,25.60
2009,07,20,12,27,25.60
2009,07,20,12,28,25.70
2009,07,20,12,29,25.70
2009,07,20,12,30,25.70
2009,07,20,12,31,25.80
2009,07,20,12,32,25.80
2009,07,20,12,33,25.80
2009,07,20,12,34,25.80
2009,07,20,12,35,25.80
2009,07,20,12,36,25.70
2009,07,20,12,37,25.70
2009,07,20,12,38,25.70
2009,07,20,12,39,25.60
2009,07,20,12,40,25.60
2009,07,20,12,41,25.50
2009,07,20,12,42,25.50
2009,07,20,12,43,25.60
2009,07,20,12,44,25.60
2009,07,20,12,45,25.70
2009,07,20,12,46,25.80
2009,07,20,12,47,25.90
2009,07,20,12,48,25.90
2009,07,20,12,49,25.90
2009,07,20,12,50,26.00
2009,07,20,12,51,26.00
2009,07,20,12,52,26.00
2009,07,20,12,53,25.90
2009,07,20,12,54,25.90
2009,07,20,12,55,25.90
2009,07,20,12,56,25.90
2009,07,20,12,57,25.90
2009,07,20,12,58,25.90
2009,07,20,12,59,25.90
2009,07,20,13,00,26.00
2009,07,20,13,01,26.00
2009,07,20,13,02,26.10
2009,07,20,13,03,26.10
2009,07,20,13,04,26.10
2009,07,20,13,05,26.10
2009,07,20,13,06,26.10
2009,07,20,13,07,26.10
2009,07,20,13,08,26.10
2009,07,20,13,09,26.20
2009,07,20,13,10,26.30
2009,07,20,13,11,26.40
2009,07,20,13,12,26.50
2009,07,20,13,13,26.60
2009,07,20,13,14,26.70
2009,07,20,13,15,26.70
2009,07,20,13,16,26.70
2009,07,20,13,17,26.70
2009,07,20,13,18,26.60
2009,07,20,13,19,26.50
2009,07,20,13,20,26.50
2009,07,20,13,21,26.40
2009,07,20,13,22,26.40
2009,07,20,13,23,26.40
2009,07,20,13,24,26.40
2009,07,20,13,25,26.40
2009,07,20,13,26,26.40
2009,07,20,13,27,26.40
2009,07,20,13,28,26.40
2009,07,20,13,29,26.50
2009,07,20,13,30,26.60
2009,07,20,13,31,26.60
2009,07,20,13,32,26.50
2009,07,20,13,33,26.60
2009,07,20,13,34,26.60
2009,07,20,13,35,26.60
2009,07,20,13,36,26.60
2009,07,20,13,37,26.60
2009,07,20,13,38,26.60
2009,07,20,13,39,26.70
2009,07,20,13,40,26.80
2009,07,20,13,41,26.90
2009,07,20,13,42,27.00
2009,07,20,13,43,27.10
2009,07,20,13,44,27.20
2009,07,20,13,45,27.30
2009,07,20,13,46,27.30
2009,07,20,13,47,27.30
2009,07,20,13,48,27.30
2009,07,20,13,49,27.30
2009,07,20,13,50,27.30
2009,07,20,13,51,27.20
2009,07,20,13,52,27.30
2009,07,20,13,53,27.30
2009,07,20,13,54,27.30
2009,07,20,13,55,27.30
2009,07,20,13,56,27.30
2009,07,20,13,57,27.40
2009,07,20,13,58,27.40
2009,07,20,13,59,27.50
2009,07,20,14,00,27.50
2009,07,20,14,01,27.40
2009,07,20,14,02,27.30
2009,07,20,14,03,27.30
2009,07,20,14,04,27.30
2009,07,20,14,05,27.40
2009,07,20,14,06,27.40
2009,07,20,14,07,27.50
2009,07,20,14,08,27.40
2009,07,20,14,09,27.50
2009,07,20,14,10,27.50
2009,07,20,14,11,27.50
2009,07,20,14,12,27.60
2009,07,20,14,13,27.70
2009,07,20,14,14,27.80
2009,07,20,14,15,27.80
2009,07,20,14,16,27.90
2009,07,20,14,17,28.00
2009,07,20,14,18,28.00
2009,07,20,14,19,28.10
2009,07,20,14,20,28.10
2009,07,20,14,21,28.10
2009,07,20,14,22,28.00
2009,07,20,14,23,28.00
2009,07,20,14,24,27.90
2009,07,20,14,25,27.90
2009,07,20,14,26,27.90
2009,07,20,14,27,28.00
2009,07,20,14,28,28.10
2009,07,20,14,29,28.10
2009,07,20,14,30,28.10
2009,07,20,14,31,28.20
2009,07,20,14,32,28.20
2009,07,20,14,33,28.20
2009,07,20,14,34,28.30
2009,07,20,14,35,28.30
2009,07,20,14,36,28.30
2009,07,20,14,37,28.30
2009,07,20,14,38,28.20
2009,07,20,14,39,28.20
2009,07,20,14,40,28.20
2009,07,20,14,41,28.20
2009,07,20,14,42,28.30
2009,07,20,14,43,28.30
2009,07,20,14,44,28.50
2009,07,20,14,45,28.60
2009,07,20,14,46,28.70
2009,07,20,14,47,28.70
2009,07,20,14,48,28.70
2009,07,20,14,49,28.70
2009,07,20,14,50,28.70
2009,07,20,14,51,28.70
2009,07,20,14,52,28.70
2009,07,20,14,53,28.70
2009,07,20,14,54,28.80
2009,07,20,14,55,28.80
2009,07,20,14,56,28.80
2009,07,20,14,57,28.90
2009,07,20,14,58,28.90
2009,07,20,14,59,28.90
2009,07,20,15,00,28.90
2009,07,20,15,01,28.90
2009,07,20,15,02,28.90
2009,07,20,15,03,28.90
2009,07,20,15,04,28.90
2009,07,20,15,05,28.90
2009,07,20,15,06,28.90
2009,07,20,15,07,28.90
2009,07,20,15,08,28.80
2009,07,20,15,09,28.80
2009,07,20,15,10,28.70
2009,07,20,15,11,28.70
2009,07,20,15,12,28.70
2009,07,20,15,13,28.80
2009,07,20,15,14,28.90
2009,07,20,15,15,29.00
2009,07,20,15,16,29.00
2009,07,20,15,17,29.10
2009,07,20,15,18,29.20
2009,07,20,15,19,29.30
2009,07,20,15,20,29.50
2009,07,20,15,21,29.60
2009,07,20,15,22,29.70
2009,07,20,15,23,29.80
2009,07,20,15,24,29.90
2009,07,20,15,25,30.00
2009,07,20,15,26,30.00
2009,07,20,15,27,29.90
2009,07,20,15,28,29.90
2009,07,20,15,29,29.70
2009,07,20,15,30,29.50
2009,07,20,15,31,29.30
2009,07,20,15,32,29.30
2009,07,20,15,33,29.30
2009,07,20,15,34,29.30
2009,07,20,15,35,29.40
2009,07,20,15,36,29.40
2009,07,20,15,37,29.40
2009,07,20,15,38,29.40
2009,07,20,15,39,29.40
2009,07,20,15,40,29.40
2009,07,20,15,41,29.30
2009,07,20,15,42,29.20
2009,07,20,15,43,29.20
2009,07,20,15,44,29.20
2009,07,20,15,45,29.20
2009,07,20,15,46,29.20
2009,07,20,15,47,29.20
2009,07,20,15,48,29.10
2009,07,20,15,49,29.10
2009,07,20,15,50,29.10
2009,07,20,15,51,29.10
2009,07,20,15,52,29.10
2009,07,20,15,53,29.00
2009,07,20,15,54,29.00
2009,07,20,15,55,29.00
2009,07,20,15,56,29.00
2009,07,20,15,57,28.90
2009,07,20,15,58,29.00
2009,07,20,15,59,29.00
2009,07,20,16,00,29.00
2009,07,20,16,01,28.90
2009,07,20,16,02,28.80
2009,07,20,16,03,28.80
2009,07,20,16,04,28.70
2009,07,20,16,05,28.70
2009,07,20,16,06,28.60
2009,07,20,16,07,28.50
2009,07,20,16,08,28.40
2009,07,20,16,09,28.30
2009,07,20,16,10,28.30
2009,07,20,16,11,28.30
2009,07,20,16,12,28.40
2009,07,20,16,13,28.30
2009,07,20,16,14,28.30
2009,07,20,16,15,28.30
2009,07,20,16,16,28.30
2009,07,20,16,17,28.30
2009,07,20,16,18,28.30
2009,07,20,16,19,28.30
2009,07,20,16,20,28.30
2009,07,20,16,21,28.30
2009,07,20,16,22,28.30
2009,07,20,16,23,28.30
2009,07,20,16,24,28.20
2009,07,20,16,25,28.30
2009,07,20,16,26,28.30
2009,07,20,16,27,28.30
2009,07,20,16,28,28.30
2009,07,20,16,29,28.30
2009,07,20,16,30,28.30
2009,07,20,16,31,28.30
2009,07,20,16,32,28.30
2009,07,20,16,33,28.30
2009,07,20,16,34,28.30
2009,07,20,16,35,28.40
2009,07,20,16,36,28.40
2009,07,20,16,37,28.40
2009,07,20,16,38,28.40
2009,07,20,16,39,28.40
2009,07,20,16,40,28.40
2009,07,20,16,41,28.40
2009,07,20,16,42,28.40
2009,07,20,16,43,28.50
2009,07,20,16,44,28.50
2009,07,20,16,45,28.50
2009,07,20,16,46,28.50
2009,07,20,16,47,28.50
2009,07,20,16,48,28.60
2009,07,20,16,49,28.60
2009,07,20,16,50,28.50
2009,07,20,16,51,28.60
2009,07,20,16,52,28.60
2009,07,20,16,53,28.60
2009,07,20,16,54,28.60
2009,07,20,16,55,28.60
2009,07,20,16,56,28.70
2009,07,20,16,57,28.70
2009,07,20,16,58,28.70
2009,07,20,16,59,28.70
2009,07,20,17,00,28.70
2009,07,20,17,01,28.80
2009,07,20,17,02,28.80
2009,07,20,17,03,28.80
2009,07,20,17,04,28.80
2009,07,20,17,05,28.80
2009,07,20,17,06,28.90
2009,07,20,17,07,28.90
2009,07,20,17,08,28.90
2009,07,20,17,09,28.80
2009,07,20,17,10,28.90
2009,07,20,17,11,28.90
2009,07,20,17,12,28.90
2009,07,20,17,13,28.90
2009,07,20,17,14,28.90
2009,07,20,17,15,28.90
2009,07,20,17,16,28.90
2009,07,20,17,17,29.00
2009,07,20,17,18,29.00
2009,07,20,17,19,28.90